OBJECT PZ

Last updated on Sun Feb 03 2019 00:02:08 GMT+0000 (Coordinated Universal Time)

1 44033U 98067PZ 19032.79791670 .00010053 00000-0 16080-3 0 9992 2 44033 51.6431 314.5517 0005404 8.6517 351.4483 15.53791946 178
UTC large
Height (km)
Speed (km/s)
/
Latitude / Longitude
Inclination (degrees)
Orbital Period (minutes)
Azimuth
Elevation
Range (km)
Doppler Factor

Next 0 passes for location: London (51.5072 / 0.1276)

Sorry there are no passes over London.